STARLINK-32251, 60940

Orbit data source: Space-Track

STARLINK-32251, 60940 is a payload satellite owned by SpaceX/Seattle (US) in LEO that was launched on Sat, 31 Aug 2024 UTC via an FALCON 9 launch vehicle from the Air Force Western Test Range (AFWTR). Payload-class satellites include a variety of spacecraft equipped with specific instruments for various scientific and technological missions. These include communications satellites like Starlink; space stations such as the ISS; scientific satellites like the Hubble; Earth observation satellites from companies like Planet Labs, Umbra, and HawkEye 360; GPS; miniature CubeSats for education and research; and military/defense satellites.

Loading next visibility...
Identifier
60940, 2024-155S
Orbit
LEO
Country
Flag of USUS
Related business
Manufacturer
SpaceX/Seattle
Mission
Operational Commercial Communications
Bus & Motor
STARLINK V2M, Unknown motor
Mass
730 kg wet, ~700 kg dry
Launch date (UTC)
2024-08-31 (2 years ago)
Launch vehicle
FALCON 9
Launch site
Air Force Western Test Range (AFWTR)
Object type
Payload
Rocket body
Debris
Shape & HBR
Box + 2 Pan, 17.7 m
Radar Cross Section
33.884 m², Large (>1 m²)

Expand to show TLE details & history
Last TLE update: 23 hours ago

TLE from 23 hours ago
0 STARLINK-32251
1 60940U 24155S   26170.88754598  .00000971  00000-0  39868-4 0  9991
2 60940  53.1618  14.5553 0001389 119.7230 240.3911 15.34394817101997
Epoch: 2026-06-19T21:18Z
TLE epoch observation values (Epoch: 2026-06-19T21:18:03.972Z)
Latitude
-0.00003°
Longitude
146.92866°
Altitude
464.09 km
Speed
7.635 km/s
True Right ascension
00h 58m 13s
True Declination
0° 00' 00"
Sunlit
Object was in daylight at epoch
Visualization orbit readout
Latitude
Unknown
Longitude
Unknown
Altitude
Unknown
Speed
Unknown
Apparent Right ascension
Unknown
Apparent Declination
Unknown
Sunlit
N/A
Visualization observer readout
Local Sidereal Time
07:12:47
Azimuth
Unknown
Elevation
Unknown
Doppler factor
Unknown
Orbital elements
Apogee altitude
463.925 km
Perigee altitude
462.025 km
Semi-major axis
6,841.112 km
Eccentricity
0.00014
Inclination
53.1618°
RAAN
14.5553°
Arg. of periapsis
119.723°
True anomaly
240.37726°
Mean anomaly
240.3911°
Eccentric anomaly
240.38418°
Mean motion
3.83577 °/min
Orbital period
93.85 mins
BSTAR
0.000039868
Loading maneuver chart data...
Computing Atmospheric mass density...
Loading historical data...
Loading historical data...
Loading historical data...
Loading historical data...
Loading historical data...
Loading historical data...
Loading historical data...

Documentation

Showing up to 5 results
|